﻿測定場所 (Monitoring sites),日付 (Measurement date),時間 (Measurement time),線量率 最大値 (max) μGy/h,線量率 最小値 (min) μGy/h,線量率 平均値 (average) μGy/h,
足立 (Adachi),2013-01-06,23:01～24:00,0.0606,0.0530,0.0564,
足立 (Adachi),2013-01-06,22:01～23:00,0.0588,0.0517,0.0559,
足立 (Adachi),2013-01-06,21:01～22:00,0.0599,0.0523,0.0566,
足立 (Adachi),2013-01-06,20:01～21:00,0.0597,0.0530,0.0561,
足立 (Adachi),2013-01-06,19:01～20:00,0.0604,0.0531,0.0565,
足立 (Adachi),2013-01-06,18:01～19:00,0.0597,0.0536,0.0560,
足立 (Adachi),2013-01-06,17:01～18:00,0.0608,0.0523,0.0565,
足立 (Adachi),2013-01-06,16:01～17:00,0.0589,0.0534,0.0562,
足立 (Adachi),2013-01-06,15:01～16:00,0.0605,0.0514,0.0559,
足立 (Adachi),2013-01-06,14:01～15:00,0.0588,0.0525,0.0564,
足立 (Adachi),2013-01-06,13:01～14:00,0.0595,0.0532,0.0565,
足立 (Adachi),2013-01-06,12:01～13:00,0.0604,0.0535,0.0566,
足立 (Adachi),2013-01-06,11:01～12:00,0.0598,0.0543,0.0571,
足立 (Adachi),2013-01-06,10:01～11:00,0.0612,0.0535,0.0570,
足立 (Adachi),2013-01-06,09:01～10:00,0.0624,0.0550,0.0580,
足立 (Adachi),2013-01-06,08:01～09:00,0.0614,0.0532,0.0579,
足立 (Adachi),2013-01-06,07:01～08:00,0.0606,0.0543,0.0573,
足立 (Adachi),2013-01-06,06:01～07:00,0.0599,0.0544,0.0574,
足立 (Adachi),2013-01-06,05:01～06:00,0.0609,0.0545,0.0573,
足立 (Adachi),2013-01-06,04:01～05:00,0.0596,0.0533,0.0565,
足立 (Adachi),2013-01-06,03:01～04:00,0.0602,0.0529,0.0568,
足立 (Adachi),2013-01-06,02:01～03:00,0.0600,0.0537,0.0562,
足立 (Adachi),2013-01-06,01:01～02:00,0.0598,0.0528,0.0563,
足立 (Adachi),2013-01-06,00:01～01:00,0.0604,0.0528,0.0564,
足立 (Adachi),2013-01-05,23:01～24:00,0.0605,0.0524,0.0566,
足立 (Adachi),2013-01-05,22:01～23:00,0.0599,0.0530,0.0565,
足立 (Adachi),2013-01-05,21:01～22:00,0.0594,0.0515,0.0561,
足立 (Adachi),2013-01-05,20:01～21:00,0.0613,0.0525,0.0560,
足立 (Adachi),2013-01-05,19:01～20:00,0.0593,0.0527,0.0559,
足立 (Adachi),2013-01-05,18:01～19:00,0.0593,0.0523,0.0558,
足立 (Adachi),2013-01-05,17:01～18:00,0.0588,0.0516,0.0556,
足立 (Adachi),2013-01-05,16:01～17:00,0.0594,0.0518,0.0557,
足立 (Adachi),2013-01-05,15:01～16:00,0.0597,0.0515,0.0557,
足立 (Adachi),2013-01-05,14:01～15:00,0.0592,0.0515,0.0558,
足立 (Adachi),2013-01-05,13:01～14:00,0.0589,0.0529,0.0560,
足立 (Adachi),2013-01-05,12:01～13:00,0.0596,0.0525,0.0560,
足立 (Adachi),2013-01-05,11:01～12:00,0.0583,0.0532,0.0558,
足立 (Adachi),2013-01-05,10:01～11:00,0.0591,0.0522,0.0558,
足立 (Adachi),2013-01-05,09:01～10:00,0.0596,0.0521,0.0560,
足立 (Adachi),2013-01-05,08:01～09:00,0.0600,0.0519,0.0555,
足立 (Adachi),2013-01-05,07:01～08:00,0.0593,0.0528,0.0556,
足立 (Adachi),2013-01-05,06:01～07:00,0.0589,0.0509,0.0555,
足立 (Adachi),2013-01-05,05:01～06:00,0.0590,0.0523,0.0558,
足立 (Adachi),2013-01-05,04:01～05:00,0.0594,0.0530,0.0556,
足立 (Adachi),2013-01-05,03:01～04:00,0.0588,0.0525,0.0559,
足立 (Adachi),2013-01-05,02:01～03:00,0.0591,0.0531,0.0564,
足立 (Adachi),2013-01-05,01:01～02:00,0.0595,0.0535,0.0560,
足立 (Adachi),2013-01-05,00:01～01:00,0.0589,0.0529,0.0556,
足立 (Adachi),2013-01-04,23:01～24:00,0.0594,0.0526,0.0561,
足立 (Adachi),2013-01-04,22:01～23:00,0.0582,0.0534,0.0557,
足立 (Adachi),2013-01-04,21:01～22:00,0.0602,0.0523,0.0559,
足立 (Adachi),2013-01-04,20:01～21:00,0.0599,0.0527,0.0557,
足立 (Adachi),2013-01-04,19:01～20:00,0.0601,0.0532,0.0559,
足立 (Adachi),2013-01-04,18:01～19:00,0.0591,0.0529,0.0558,
足立 (Adachi),2013-01-04,17:01～18:00,0.0580,0.0524,0.0553,
足立 (Adachi),2013-01-04,16:01～17:00,0.0583,0.0521,0.0552,
足立 (Adachi),2013-01-04,15:01～16:00,0.0595,0.0518,0.0553,
足立 (Adachi),2013-01-04,14:01～15:00,0.0585,0.0528,0.0558,
足立 (Adachi),2013-01-04,13:01～14:00,0.0601,0.0525,0.0559,
足立 (Adachi),2013-01-04,12:01～13:00,0.0593,0.0521,0.0557,
足立 (Adachi),2013-01-04,11:01～12:00,0.0595,0.0515,0.0556,
足立 (Adachi),2013-01-04,10:01～11:00,0.0589,0.0525,0.0557,
足立 (Adachi),2013-01-04,09:01～10:00,0.0592,0.0512,0.0560,
足立 (Adachi),2013-01-04,08:01～09:00,0.0598,0.0526,0.0560,
足立 (Adachi),2013-01-04,07:01～08:00,0.0584,0.0508,0.0555,
足立 (Adachi),2013-01-04,06:01～07:00,0.0585,0.0520,0.0557,
足立 (Adachi),2013-01-04,05:01～06:00,0.0592,0.0523,0.0561,
足立 (Adachi),2013-01-04,04:01～05:00,0.0599,0.0533,0.0565,
足立 (Adachi),2013-01-04,03:01～04:00,0.0602,0.0531,0.0561,
足立 (Adachi),2013-01-04,02:01～03:00,0.0610,0.0527,0.0564,
足立 (Adachi),2013-01-04,01:01～02:00,0.0593,0.0522,0.0567,
足立 (Adachi),2013-01-04,00:01～01:00,0.0614,0.0521,0.0565,
足立 (Adachi),2013-01-03,23:01～24:00,0.0603,0.0528,0.0565,
足立 (Adachi),2013-01-03,22:01～23:00,0.0593,0.0528,0.0563,
足立 (Adachi),2013-01-03,21:01～22:00,0.0602,0.0527,0.0562,
足立 (Adachi),2013-01-03,20:01～21:00,0.0601,0.0535,0.0560,
足立 (Adachi),2013-01-03,19:01～20:00,0.0599,0.0533,0.0566,
足立 (Adachi),2013-01-03,18:01～19:00,0.0587,0.0529,0.0564,
足立 (Adachi),2013-01-03,17:01～18:00,0.0601,0.0529,0.0561,
足立 (Adachi),2013-01-03,16:01～17:00,0.0588,0.0521,0.0558,
足立 (Adachi),2013-01-03,15:01～16:00,0.0598,0.0520,0.0558,
足立 (Adachi),2013-01-03,14:01～15:00,0.0603,0.0529,0.0563,
足立 (Adachi),2013-01-03,13:01～14:00,0.0596,0.0531,0.0562,
足立 (Adachi),2013-01-03,12:01～13:00,0.0593,0.0528,0.0563,
足立 (Adachi),2013-01-03,11:01～12:00,0.0593,0.0531,0.0562,
足立 (Adachi),2013-01-03,10:01～11:00,0.0590,0.0534,0.0563,
足立 (Adachi),2013-01-03,09:01～10:00,0.0597,0.0531,0.0562,
足立 (Adachi),2013-01-03,08:01～09:00,0.0591,0.0528,0.0562,
足立 (Adachi),2013-01-03,07:01～08:00,0.0601,0.0525,0.0561,
足立 (Adachi),2013-01-03,06:01～07:00,0.0601,0.0522,0.0559,
足立 (Adachi),2013-01-03,05:01～06:00,0.0587,0.0518,0.0557,
足立 (Adachi),2013-01-03,04:01～05:00,0.0602,0.0529,0.0559,
足立 (Adachi),2013-01-03,03:01～04:00,0.0596,0.0525,0.0557,
足立 (Adachi),2013-01-03,02:01～03:00,0.0605,0.0528,0.0565,
足立 (Adachi),2013-01-03,01:01～02:00,0.0590,0.0515,0.0566,
足立 (Adachi),2013-01-03,00:01～01:00,0.0609,0.0529,0.0565,
足立 (Adachi),2013-01-02,23:01～24:00,0.0608,0.0516,0.0564,
足立 (Adachi),2013-01-02,22:01～23:00,0.0596,0.0523,0.0561,
足立 (Adachi),2013-01-02,21:01～22:00,0.0602,0.0526,0.0566,
足立 (Adachi),2013-01-02,20:01～21:00,0.0597,0.0529,0.0561,
足立 (Adachi),2013-01-02,19:01～20:00,0.0596,0.0526,0.0559,
足立 (Adachi),2013-01-02,18:01～19:00,0.0601,0.0512,0.0561,
足立 (Adachi),2013-01-02,17:01～18:00,0.0591,0.0523,0.0556,
足立 (Adachi),2013-01-02,16:01～17:00,0.0591,0.0529,0.0559,
足立 (Adachi),2013-01-02,15:01～16:00,0.0586,0.0530,0.0556,
足立 (Adachi),2013-01-02,14:01～15:00,0.0592,0.0511,0.0555,
足立 (Adachi),2013-01-02,13:01～14:00,0.0587,0.0526,0.0563,
足立 (Adachi),2013-01-02,12:01～13:00,0.0606,0.0518,0.0562,
足立 (Adachi),2013-01-02,11:01～12:00,0.0594,0.0524,0.0559,
足立 (Adachi),2013-01-02,10:01～11:00,0.0598,0.0524,0.0554,
足立 (Adachi),2013-01-02,09:01～10:00,0.0599,0.0531,0.0560,
足立 (Adachi),2013-01-02,08:01～09:00,0.0604,0.0532,0.0563,
足立 (Adachi),2013-01-02,07:01～08:00,0.0591,0.0525,0.0561,
足立 (Adachi),2013-01-02,06:01～07:00,0.0598,0.0535,0.0564,
足立 (Adachi),2013-01-02,05:01～06:00,0.0595,0.0523,0.0559,
足立 (Adachi),2013-01-02,04:01～05:00,0.0582,0.0531,0.0560,
足立 (Adachi),2013-01-02,03:01～04:00,0.0597,0.0525,0.0560,
足立 (Adachi),2013-01-02,02:01～03:00,0.0583,0.0520,0.0558,
足立 (Adachi),2013-01-02,01:01～02:00,0.0590,0.0526,0.0555,
足立 (Adachi),2013-01-02,00:01～01:00,0.0594,0.0518,0.0555,
足立 (Adachi),2013-01-01,23:01～24:00,0.0591,0.0530,0.0561,
足立 (Adachi),2013-01-01,22:01～23:00,0.0594,0.0506,0.0555,
足立 (Adachi),2013-01-01,21:01～22:00,0.0592,0.0514,0.0557,
足立 (Adachi),2013-01-01,20:01～21:00,0.0596,0.0526,0.0558,
足立 (Adachi),2013-01-01,19:01～20:00,0.0590,0.0521,0.0556,
足立 (Adachi),2013-01-01,18:01～19:00,0.0583,0.0522,0.0557,
足立 (Adachi),2013-01-01,17:01～18:00,0.0587,0.0508,0.0551,
足立 (Adachi),2013-01-01,16:01～17:00,0.0590,0.0514,0.0552,
足立 (Adachi),2013-01-01,15:01～16:00,0.0594,0.0522,0.0556,
足立 (Adachi),2013-01-01,14:01～15:00,0.0598,0.0526,0.0560,
足立 (Adachi),2013-01-01,13:01～14:00,0.0587,0.0531,0.0561,
足立 (Adachi),2013-01-01,12:01～13:00,0.0598,0.0518,0.0561,
足立 (Adachi),2013-01-01,11:01～12:00,0.0597,0.0531,0.0563,
足立 (Adachi),2013-01-01,10:01～11:00,0.0603,0.0519,0.0564,
足立 (Adachi),2013-01-01,09:01～10:00,0.0592,0.0529,0.0562,
足立 (Adachi),2013-01-01,08:01～09:00,0.0602,0.0533,0.0562,
足立 (Adachi),2013-01-01,07:01～08:00,0.0592,0.0526,0.0559,
足立 (Adachi),2013-01-01,06:01～07:00,0.0588,0.0515,0.0554,
足立 (Adachi),2013-01-01,05:01～06:00,0.0598,0.0523,0.0550,
足立 (Adachi),2013-01-01,04:01～05:00,0.0583,0.0525,0.0550,
足立 (Adachi),2013-01-01,03:01～04:00,0.0598,0.0519,0.0551,
足立 (Adachi),2013-01-01,02:01～03:00,0.0576,0.0514,0.0546,
足立 (Adachi),2013-01-01,01:01～02:00,0.0587,0.0510,0.0544,
足立 (Adachi),2013-01-01,00:01～01:00,0.0586,0.0499,0.0547,
足立 (Adachi),2012-12-31,23:01～24:00,0.0599,0.0522,0.0547,
足立 (Adachi),2012-12-31,22:01～23:00,0.0573,0.0516,0.0545,
足立 (Adachi),2012-12-31,21:01～22:00,0.0585,0.0524,0.0551,
足立 (Adachi),2012-12-31,20:01～21:00,0.0591,0.0519,0.0555,
足立 (Adachi),2012-12-31,19:01～20:00,0.0595,0.0525,0.0552,
足立 (Adachi),2012-12-31,18:01～19:00,0.0590,0.0501,0.0552,
足立 (Adachi),2012-12-31,17:01～18:00,0.0594,0.0515,0.0554,
足立 (Adachi),2012-12-31,16:01～17:00,0.0592,0.0516,0.0552,
足立 (Adachi),2012-12-31,15:01～16:00,0.0598,0.0535,0.0566,
足立 (Adachi),2012-12-31,14:01～15:00,0.0593,0.0531,0.0565,
足立 (Adachi),2012-12-31,13:01～14:00,0.0591,0.0537,0.0567,
足立 (Adachi),2012-12-31,12:01～13:00,0.0617,0.0534,0.0569,
足立 (Adachi),2012-12-31,11:01～12:00,0.0602,0.0534,0.0568,
足立 (Adachi),2012-12-31,10:01～11:00,0.0625,0.0541,0.0571,
足立 (Adachi),2012-12-31,09:01～10:00,0.0601,0.0527,0.0569,
足立 (Adachi),2012-12-31,08:01～09:00,0.0632,0.0523,0.0572,
足立 (Adachi),2012-12-31,07:01～08:00,0.0612,0.0535,0.0570,
足立 (Adachi),2012-12-31,06:01～07:00,0.0604,0.0509,0.0568,
足立 (Adachi),2012-12-31,05:01～06:00,0.0598,0.0542,0.0567,
足立 (Adachi),2012-12-31,04:01～05:00,0.0608,0.0540,0.0565,
足立 (Adachi),2012-12-31,03:01～04:00,0.0599,0.0523,0.0559,
足立 (Adachi),2012-12-31,02:01～03:00,0.0580,0.0510,0.0549,
足立 (Adachi),2012-12-31,01:01～02:00,0.0580,0.0514,0.0551,
足立 (Adachi),2012-12-31,00:01～01:00,0.0576,0.0509,0.0548,
